This is the latest recevied weather packets stored in our database for station/object XE2KK-10. If no packets are shown the sender has not sent any weather packets the latest 10 day(s).
| Time | Temp. | Humidity | Pressure | Rain* | Wind** | Luminosity | Snow |
|---|---|---|---|---|---|---|---|
| 1777743853 | 14.44° C | 86% | 1023.1 hPa | 0 mm | - | 116 W/m² | - |
| 1777743553 | 14.44° C | 86% | 1023.1 hPa | 0 mm | - | 124 W/m² | - |
| 1777743252 | 14.44° C | 86% | 1023.1 hPa | 0 mm | - | 150 W/m² | - |
| 1777742952 | 14.44° C | 87% | 1023.2 hPa | 0 mm | - | 132 W/m² | - |
| 1777742653 | 14.44° C | 87% | 1023.3 hPa | 0 mm | - | 120 W/m² | - |
| 1777742353 | 14.44° C | 87% | 1023.1 hPa | 0 mm | - | 108 W/m² | - |
| 1777742053 | 14.44° C | 87% | 1023.5 hPa | 0 mm | - | 126 W/m² | - |
| 1777741753 | 13.89° C | 87% | 1023.3 hPa | 0 mm | - | 147 W/m² | - |
| 1777741452 | 14.44° C | 87% | 1023.5 hPa | 0 mm | - | 184 W/m² | - |
| 1777741152 | 14.44° C | 87% | 1023.1 hPa | 0 mm | - | 210 W/m² | - |
| 1777740853 | 13.89° C | 88% | 1023.4 hPa | 0 mm | - | 194 W/m² | - |
| 1777740553 | 13.89° C | 88% | 1023.2 hPa | 0 mm | - | 182 W/m² | - |
| 1777740253 | 13.89° C | 89% | 1023.2 hPa | 0 mm | - | 173 W/m² | - |
| 1777739953 | 13.89° C | 88% | 1023.4 hPa | 0 mm | - | 125 W/m² | - |
| 1777739652 | 13.89° C | 88% | 1023.2 hPa | 0 mm | - | 152 W/m² | - |
| 1777739352 | 13.89° C | 88% | 1023.3 hPa | 0 mm | - | 141 W/m² | - |
| 1777739053 | 13.89° C | 87% | 1023.4 hPa | 0 mm | - | 147 W/m² | - |
| 1777738753 | 13.89° C | 86% | 1023.2 hPa | 0 mm | - | 163 W/m² | - |
| 1777738453 | 13.89° C | 86% | 1023.1 hPa | 0 mm | - | 120 W/m² | - |
| 1777738153 | 13.89° C | 86% | 1023.2 hPa | 0 mm | - | 111 W/m² | - |
| 1777737852 | 13.89° C | 86% | 1023.1 hPa | 0 mm | - | 99 W/m² | - |
| 1777737552 | 13.89° C | 86% | 1023 hPa | 0 mm | - | 104 W/m² | - |
| 1777737253 | 13.89° C | 86% | 1023.1 hPa | 0 mm | - | 96 W/m² | - |
| 1777736953 | 13.89° C | 86% | 1023.2 hPa | 0 mm | - | 80 W/m² | - |
| 1777736653 | 13.89° C | 86% | 1022.9 hPa | 0 mm | - | 67 W/m² | - |
* Rain latest hour (hover to see other rain measurements)
** Current wind speed in m/s (hover to see current wind gust speed)